Location: St. Louis
(38.6270°N, 90.1994°W)
Time: 11:45:13
(UTC-06:00)

A-11 Canister half - Pass Details

Date: 13 December 2021
Orbit: 1524 x 1684 km, 47.3° (Epoch: 25 January)

Event Time Altitude Azimuth Distance (km) Brightness Sun altitude
Rises 19:19:36 0° 165° (SSE) 4,839 11.5 -30.3°
Enters shadow 19:22:52 - 151° (SSE) 4,269 11.1 -30.9°
Reaches altitude 10° 19:26:27 10° 132° (SE) 3,898 - -31.6°
Maximum altitude 19:28:34 11° 120° (ESE) 3,843 - -32.0°
Drops below altitude 10° 19:30:42 10° 107° (ESE) 3,921 - -32.4°
Sets 19:37:37 0° 75° (ENE) 4,935 - -33.8°
